Voltar ao catálogo

STARLINK-31065

AtivoComunicaçõesVLEO
NORAD 58627·PAYLOAD·🇺🇸 United States

Lançado Dec 23, 2023 de Cape Canaveral Space Force Station

Loading…

Próximas Passagens (próximas 24 horas)

TLE

AtualizadoSource: CelesTrak SupGP

Época: Sep 14, 2026, 21:27 UTC

1 58627C 23203K   26257.89423611  .00018292  00000+0  66272-3 0  2578
2 58627  43.0008  78.3466 0001455 275.0143 328.2284 15.27560192    14

Acompanhe STARLINK-31065 em tempo real com AllMySat

Download on the App Store